Total_Precipitation_Accumulation
0.00 0.00 0.04 0.09 0.17 0.27 0.28 0.11 0.04 0.02 0.01 0.01 0.01 0.00 0.00 0.00 0.02 0.05 0.01 0.00 0.00 0.00 0.00 0.00 0.00 0.00 0.00 0.00 0.00 0.00 0.00 0.00 0.00 0.00 0.00 0.00 0.00 0.00 0.00 0.00 0.01 0.01 0.01 0.02 0.02 0.02 0.01 0.01 0.00
0.00 0.00 0.02 0.05 0.16 0.25 0.19 0.06 0.02 0.01 0.01 0.01 0.01 0.00 0.00 0.00 0.00 0.00 0.00 0.00 0.00 0.00 0.00 0.00 0.00 0.00 0.00 0.00 0.00 0.00 0.00 0.00 0.01 0.01 0.00 0.00 0.00 0.00 0.01 0.01 0.01 0.01 0.02 0.02 0.02 0.02 0.01 0.01 0.00
0.00 0.00 0.01 0.02 0.07 0.16 0.17 0.06 0.03 0.02 0.02 0.02 0.02 0.01 0.00 0.00 0.00 0.00 0.00 0.00 0.00 0.00 0.00 0.00 0.00 0.00 0.00 0.00 0.00 0.00 0.00 0.00 0.01 0.01 0.01 0.01 0.01 0.01 0.01 0.01 0.01 0.01 0.02 0.03 0.02 0.02 0.01 0.01 0.00
0.00 0.00 0.00 0.01 0.02 0.05 0.10 0.06 0.04 0.05 0.04 0.02 0.03 0.01 0.00 0.00 0.00 0.00 0.00 0.00 0.00 0.00 0.00 0.00 0.00 0.00 0.00 0.00 0.00 0.00 0.00 0.00 0.01 0.01 0.01 0.01 0.02 0.02 0.02 0.02 0.02 0.02 0.03 0.03 0.02 0.02 0.01 0.01 0.00
0.00 0.00 0.00 0.00 0.01 0.02 0.04 0.06 0.11 0.10 0.04 0.04 0.05 0.02 0.01 0.00 0.00 0.00 0.00 0.00 0.00 0.00 0.00 0.00 0.00 0.00 0.00 0.00 0.00 0.00 0.00 0.01 0.01 0.01 0.01 0.01 0.01 0.02 0.02 0.02 0.02 0.02 0.02 0.03 0.02 0.02 0.01 0.01 0.00
0.00 0.00 0.00 0.00 0.00 0.01 0.03 0.06 0.12 0.12 0.05 0.06 0.09 0.06 0.02 0.00 0.00 0.00 0.00 0.00 0.00 0.00 0.00 0.01 0.01 0.01 0.00 0.00 0.00 0.00 0.01 0.01 0.01 0.01 0.01 0.01 0.01 0.01 0.02 0.02 0.02 0.02 0.02 0.03 0.02 0.01 0.01 0.01 0.00
0.00 0.00 0.00 0.00 0.00 0.01 0.03 0.06 0.10 0.10 0.08 0.11 0.15 0.12 0.06 0.02 0.01 0.01 0.00 0.00 0.00 0.00 0.00 0.01 0.01 0.01 0.01 0.01 0.00 0.00 0.01 0.01 0.01 0.00 0.00 0.00 0.01 0.01 0.01 0.02 0.02 0.02 0.02 0.02 0.02 0.02 0.01 0.01 0.01
0.00 0.00 0.00 0.00 0.00 0.01 0.02 0.04 0.06 0.07 0.11 0.12 0.13 0.17 0.15 0.04 0.02 0.02 0.01 0.02 0.02 0.01 0.01 0.02 0.02 0.02 0.02 0.02 0.02 0.02 0.01 0.01 0.01 0.01 0.01 0.01 0.01 0.01 0.01 0.01 0.02 0.02 0.03 0.03 0.03 0.03 0.02 0.02 0.02
0.00 0.00 0.00 0.00 0.00 0.01 0.01 0.02 0.03 0.03 0.06 0.12 0.21 0.28 0.24 0.11 0.05 0.04 0.04 0.04 0.04 0.03 0.03 0.03 0.03 0.03 0.04 0.04 0.05 0.07 0.07 0.07 0.05 0.04 0.04 0.03 0.01 0.01 0.02 0.03 0.07 0.09 0.13 0.14 0.13 0.12 0.12 0.12 0.08
0.00 0.00 0.00 0.00 0.00 0.00 0.00 0.01 0.01 0.01 0.05 0.17 0.20 0.33 0.35 0.17 0.09 0.07 0.06 0.05 0.04 0.05 0.06 0.05 0.05 0.05 0.07 0.07 0.10 0.17 0.18 0.22 0.19 0.18 0.22 0.19 0.16 0.11 0.06 0.12 0.27 0.32 0.42 0.46 0.50 0.62 0.54 0.39 0.25
0.00 0.00 0.00 0.00 0.00 0.00 0.00 0.00 0.00 0.00 0.02 0.11 0.31 0.44 0.30 0.21 0.16 0.14 0.10 0.10 0.11 0.12 0.11 0.10 0.09 0.09 0.10 0.12 0.11 0.16 0.19 0.33 0.38 0.36 0.48 0.58 0.53 0.39 0.29 0.36 0.51 0.60 0.75 0.79 1.04 1.21 0.77 0.66 0.67
0.00 0.00 0.00 0.00 0.00 0.00 0.00 0.00 0.00 0.00 0.01 0.05 0.26 0.47 0.33 0.29 0.23 0.19 0.23 0.22 0.26 0.25 0.21 0.22 0.20 0.15 0.13 0.16 0.18 0.17 0.19 0.25 0.35 0.45 0.59 0.80 0.75 0.62 0.61 0.61 0.59 0.77 0.89 1.15 1.21 1.27 1.27 1.31 1.17
0.00 0.00 0.00 0.00 0.00 0.00 0.00 0.00 0.00 0.01 0.00 0.01 0.06 0.21 0.31 0.29 0.25 0.28 0.34 0.34 0.37 0.39 0.42 0.42 0.43 0.38 0.34 0.32 0.30 0.21 0.21 0.23 0.30 0.49 0.62 0.92 1.08 1.01 1.10 0.93 0.87 0.79 1.09 1.43 1.59 1.56 1.70 1.79 1.73
0.00 0.00 0.00 0.00 0.00 0.00 0.00 0.00 0.00 0.01 0.01 0.01 0.02 0.06 0.16 0.22 0.22 0.26 0.41 0.47 0.46 0.56 0.70 0.75 0.81 0.77 0.71 0.61 0.50 0.42 0.38 0.40 0.44 0.61 0.84 1.31 1.46 1.34 1.39 1.33 1.24 1.04 1.18 1.49 1.82 1.86 2.01 1.91 1.89
0.00 0.00 0.00 0.00 0.00 0.00 0.00 0.01 0.01 0.01 0.01 0.01 0.02 0.03 0.07 0.12 0.20 0.34 0.49 0.57 0.68 0.86 1.04 1.20 1.34 1.27 1.18 1.09 0.94 0.79 0.68 0.65 0.77 0.98 1.19 1.49 1.67 1.76 1.93 1.80 1.45 1.27 1.44 1.61 1.66 1.77 2.19 1.98 1.87
0.00 0.00 0.00 0.01 0.01 0.01 0.01 0.04 0.04 0.03 0.02 0.02 0.03 0.07 0.10 0.15 0.21 0.33 0.48 0.67 0.94 1.26 1.63 1.94 2.10 2.10 2.03 1.75 1.47 1.28 1.20 1.17 1.26 1.36 1.34 1.31 1.47 1.66 1.83 1.56 1.24 1.38 1.64 1.76 1.66 1.68 2.02 2.03 1.99
0.00 0.00 0.01 0.05 0.03 0.02 0.04 0.08 0.08 0.06 0.05 0.05 0.06 0.10 0.15 0.22 0.29 0.40 0.55 0.80 1.20 1.67 2.21 2.70 2.90 2.74 2.51 2.02 1.64 1.37 1.44 1.48 1.48 1.41 1.23 1.09 1.02 1.06 1.18 1.01 0.94 1.17 1.42 1.41 1.24 1.35 1.61 1.69 1.73
0.01 0.02 0.04 0.06 0.06 0.07 0.11 0.15 0.16 0.15 0.13 0.11 0.10 0.15 0.21 0.26 0.36 0.49 0.66 0.89 1.26 1.81 2.39 2.83 3.08 2.78 2.31 1.98 1.80 1.54 1.44 1.39 1.38 1.23 1.02 0.83 0.77 0.75 0.83 0.82 0.78 0.86 0.90 0.91 1.06 1.19 1.33 1.22 1.28
0.01 0.03 0.07 0.07 0.08 0.15 0.21 0.25 0.28 0.25 0.21 0.17 0.15 0.18 0.21 0.25 0.35 0.49 0.72 1.00 1.47 2.14 2.80 3.05 2.85 2.23 1.82 1.57 1.44 1.26 1.11 1.01 0.94 0.87 0.78 0.69 0.69 0.64 0.64 0.61 0.62 0.68 0.67 0.66 0.80 0.92 0.92 0.75 0.90
0.02 0.03 0.08 0.10 0.07 0.07 0.16 0.34 0.40 0.41 0.32 0.19 0.13 0.13 0.16 0.25 0.41 0.70 1.05 1.46 1.91 2.22 2.42 2.36 2.01 1.44 1.10 0.89 0.75 0.62 0.54 0.54 0.54 0.51 0.51 0.53 0.54 0.54 0.53 0.50 0.48 0.48 0.51 0.52 0.57 0.68 0.68 0.60 0.71
0.03 0.03 0.09 0.12 0.07 0.07 0.16 0.41 0.49 0.45 0.36 0.22 0.15 0.15 0.24 0.42 0.78 1.33 1.80 2.00 2.00 1.94 1.68 1.28 0.93 0.67 0.57 0.44 0.36 0.27 0.23 0.23 0.24 0.26 0.29 0.32 0.33 0.33 0.33 0.32 0.32 0.34 0.38 0.41 0.47 0.54 0.56 0.50 0.49
0.04 0.03 0.03 0.03 0.05 0.15 0.27 0.52 0.52 0.48 0.40 0.25 0.25 0.30 0.40 0.63 1.05 1.54 1.84 1.80 1.58 1.27 0.87 0.57 0.43 0.35 0.30 0.25 0.24 0.22 0.18 0.18 0.19 0.20 0.22 0.23 0.22 0.23 0.23 0.21 0.21 0.21 0.25 0.31 0.34 0.42 0.52 0.50 0.41
0.02 0.02 0.02 0.04 0.07 0.13 0.26 0.47 0.62 0.59 0.55 0.27 0.22 0.24 0.33 0.57 0.80 0.91 0.94 0.88 0.72 0.52 0.46 0.43 0.35 0.35 0.35 0.29 0.26 0.23 0.19 0.18 0.19 0.20 0.21 0.24 0.25 0.23 0.23 0.22 0.20 0.20 0.20 0.23 0.27 0.34 0.43 0.50 0.45
0.02 0.02 0.04 0.07 0.12 0.30 0.43 0.54 0.71 0.69 0.57 0.27 0.15 0.18 0.31 0.42 0.46 0.39 0.31 0.26 0.24 0.22 0.23 0.24 0.24 0.32 0.38 0.36 0.31 0.28 0.24 0.21 0.19 0.17 0.18 0.20 0.22 0.25 0.25 0.25 0.26 0.26 0.25 0.25 0.25 0.26 0.31 0.42 0.50
0.02 0.03 0.11 0.29 0.47 0.55 0.39 0.42 0.71 0.72 0.45 0.20 0.09 0.08 0.14 0.25 0.33 0.35 0.30 0.23 0.19 0.15 0.14 0.13 0.13 0.16 0.19 0.23 0.24 0.24 0.24 0.21 0.19 0.17 0.14 0.16 0.17 0.20 0.22 0.23 0.24 0.27 0.29 0.29 0.27 0.27 0.27 0.34 0.43
0.03 0.03 0.06 0.15 0.19 0.26 0.30 0.68 0.86 0.47 0.24 0.11 0.05 0.03 0.08 0.16 0.21 0.24 0.22 0.18 0.14 0.10 0.08 0.06 0.06 0.07 0.07 0.08 0.10 0.12 0.15 0.16 0.18 0.21 0.17 0.16 0.18 0.19 0.20 0.20 0.19 0.21 0.26 0.31 0.33 0.31 0.31 0.34 0.36
0.03 0.02 0.02 0.03 0.05 0.14 0.32 0.61 0.52 0.26 0.18 0.07 0.03 0.02 0.04 0.08 0.10 0.10 0.09 0.07 0.06 0.05 0.05 0.04 0.03 0.03 0.03 0.03 0.05 0.06 0.09 0.13 0.15 0.17 0.17 0.17 0.21 0.21 0.20 0.20 0.20 0.20 0.22 0.26 0.30 0.31 0.33 0.36 0.36
0.02 0.02 0.01 0.02 0.04 0.07 0.20 0.50 0.53 0.28 0.15 0.04 0.02 0.02 0.03 0.05 0.06 0.06 0.05 0.04 0.03 0.02 0.02 0.02 0.02 0.02 0.01 0.01 0.02 0.02 0.04 0.07 0.10 0.10 0.12 0.14 0.16 0.18 0.19 0.19 0.18 0.18 0.20 0.21 0.24 0.26 0.33 0.39 0.45
0.02 0.01 0.02 0.02 0.03 0.03 0.08 0.22 0.19 0.13 0.06 0.02 0.01 0.01 0.02 0.03 0.03 0.03 0.02 0.02 0.02 0.01 0.01 0.02 0.02 0.02 0.02 0.01 0.01 0.01 0.03 0.04 0.06 0.10 0.13 0.14 0.13 0.12 0.13 0.15 0.16 0.18 0.20 0.23 0.28 0.31 0.36 0.46 0.58
0.02 0.02 0.03 0.03 0.02 0.01 0.02 0.08 0.07 0.06 0.03 0.01 0.00 0.00 0.00 0.00 0.01 0.01 0.01 0.01 0.01 0.01 0.01 0.02 0.02 0.02 0.02 0.02 0.02 0.01 0.01 0.02 0.04 0.07 0.10 0.11 0.12 0.11 0.11 0.12 0.13 0.13 0.14 0.19 0.29 0.40 0.41 0.44 0.52